Tracking 21992 objects as of 26-Nov-2020
HD Live streaming from Space Station
objects crossing your sky now

TITAN 4B R/B

Track TITAN 4B R/B now!
10-day predictions
TITAN 4B R/B is classified as:


NORAD ID: 26474
Int'l Code: 2000-047B
Perigee: 548.4 km
Apogee: 624.3 km
Inclination: 68.0 °
Period: 96.3 minutes
Semi major axis: 6957 km
RCS: 15.6118 m2 (large)
Launch date: August 17, 2000
Source: United States (US)
Launch site: AIR FORCE WESTERN TEST RANGE (AFWTR)

Note: This is a ROCKET BODY
aabbcc
Your satellite tracking list
Your tracking list is empty




NASA's NSSDC Master Catalog

Two Line Element Set (TLE):
1 26474U 00047B   20330.78366962  .00000340  00000-0  40275-4 0  9998
2 26474  67.9941 351.6036 0054541  15.0176 345.2570 14.96023945103456
Source of the keplerian elements: AFSPC